Home   Weather   Wichita Falls   Past weeks

Flag for USA Past Weather in Wichita Falls, Texas, USA — Yesterday and Last 2 Weeks

Now
41 °F

Fog.


Feels Like: 36 °F
Forecast: 43 / 66 °F
Wind: 7 mph from South

Location: Wichita Falls - Sheppard Air Force Base

Current Time: Jan 19, 2017 at 12:51:11 am

Latest Report: Jan 19, 2017 at 12:26 am


Visibility: 1 mi

Pressure: 29.91 "Hg

Humidity: 100%

Dew Point: 41 °F

Location of Wichita FallsLocation

Past Weather in Wichita Falls — Graph

°F

Wichita Falls Temperature Yesterday

Maximum temperature yesterday: 52 °F (at 3:52 pm)
Minimum temperature yesterday: 37 °F (at 6:52 am)
Average temperature yesterday: 45 °F

High & Low Weather Summary for the Past Weeks

 TemperatureHumidityPressure
High81 °F (Jan 11, 2:52 pm)100% (Jan 15, 3:52 am)30.77 "Hg (Jan 15, 3:52 am)
Low7 °F (Jan 7, 4:52 am)16% (Jan 10, 2:52 pm)29.66 "Hg (Jan 11, 4:52 pm)
Average38 °F70%30.20 "Hg
* Reported Jan 3 10:52 pm — Jan 18 10:52 pm, Wichita Falls, Weather by CustomWeather, © 2017

Note: Actual official high and low records may vary slightly from our data, if they occured in-between our weather recording intervals... More about our weather records

Advertising

Wichita Falls Weather History for the Previous 24 Hours

Scroll right to see more
 ConditionsComfort  
Time TempWeatherWind HumidityBarometerVisibility
10:52 pm
Wed, Jan 18
43 °FClear.9 mph97%29.95 "Hg10 mi
9:52 pm43 °FClear.10 mph93%29.95 "Hg8 mi
8:52 pm42 °FPassing clouds.9 mph96%29.96 "Hg10 mi
7:52 pm45 °FPassing clouds.6 mph93%29.97 "Hg10 mi
6:52 pm48 °FPassing clouds.No wind89%29.98 "Hg10 mi
5:52 pm51 °FPassing clouds.7 mph83%29.98 "Hg10 mi
4:59 pm51 °FPartly sunny.7 mph83%29.99 "Hg10 mi
4:35 pm51 °FScattered clouds.8 mph83%30.00 "Hg10 mi
3:52 pm52 °FPartly sunny.6 mph80%30.00 "Hg10 mi
3:36 pm51 °FPartly sunny.6 mph83%30.01 "Hg10 mi
2:52 pm50 °FMostly cloudy.5 mph86%30.03 "Hg10 mi
1:52 pm49 °FMostly cloudy.No wind90%30.06 "Hg10 mi
12:52 pm47 °FFog.No wind93%30.10 "Hg3 mi
12:28 pm47 °FFog.No wind93%30.11 "Hg2 mi
11:52 am46 °FFog.No wind93%30.14 "Hg5 mi
11:10 am46 °FFog.No wind93%30.14 "Hg6 mi
10:59 am46 °FFog.No wind93%30.15 "Hg6 mi
10:52 am46 °FFog.No wind93%30.15 "Hg6 mi
9:52 am45 °FFog.3 mph93%30.14 "Hg6 mi
8:52 am43 °FFog.3 mph97%30.14 "Hg2 mi
8:35 am42 °FFog.6 mph100%30.13 "Hg2 mi
8:22 am43 °FFog.6 mph97%30.13 "Hg3 mi
7:52 am43 °FFog.No wind97%30.14 "Hg6 mi
7:36 am42 °FFog.No wind100%30.13 "Hg6 mi
7:23 am41 °FFog.5 mph100%30.15 "Hg3 mi
6:52 am37 °FFog.6 mph100%30.15 "Hg1 mi
5:52 am39 °FFog.No wind96%30.12 "Hg0 mi
5:35 am41 °FFog.No wind93%30.11 "Hg0 mi
5:08 am42 °FFog.No wind96%30.11 "Hg1 mi
4:52 am41 °FFog.3 mph96%30.11 "Hg1 mi
4:43 am43 °FPassing clouds.No wind93%30.11 "Hg8 mi
3:52 am44 °FOvercast.3 mph93%30.12 "Hg9 mi
3:34 am44 °FOvercast.5 mph93%30.13 "Hg10 mi
2:52 am44 °FOvercast.3 mph93%30.14 "Hg10 mi
1:52 am44 °FOvercast.7 mph93%30.14 "Hg10 mi
12:52 am44 °FMostly cloudy.3 mph96%30.16 "Hg10 mi
Weather by CustomWeather, © 2017

See weather overviewHow to use our weather pages